Hamilton, OH

9:06 AM EDT on July 28, 2017 (GMT -0400)
Butler County Regional

Weather History for KHAO - April, 2014

Change the Weather History Date:

Saturday, April 12, 2014

  Actual Average (KLUK) Record (KLUK)
Temperature  
Mean Temperature 61 °F -  
Max Temperature 82 °F 66 °F 85 °F (1977)
Min Temperature 41 °F 42 °F 26 °F (1976)
Degree Days  
Heating Degree Days 4    
Growing Degree Days 11 (Base 50)    
Moisture  
Dew Point 47 °F    
Average Humidity 59    
Maximum Humidity 89    
Minimum Humidity 35    
Precipitation  
Precipitation 0.00 in - - ()
Sea Level Pressure  
Sea Level Pressure 30.05 in    
Wind  
Wind Speed 4 mph (South)    
Max Wind Speed 14 mph    
Max Gust Speed 23 mph    
Visibility 10 miles    
Events      
Averages and records for this station are not official NWS values.
T = Trace of Precipitation, MM = Missing Value Source: NWS Daily Summary

Daily Weather History Graph

Daily Weather History Graph

Search for Another Location

Airport or City:

Trip Planner

Search our weather history database for the weather conditions in past years. The results will help you decide how hot, cold, wet, or windy it might be!

Date:

Astronomy

Apr. 12, 2014 Rise Set
Actual Time 7:05 AM EDT 8:12 PM EDT
Civil Twilight 6:37 AM EDT 8:40 PM EDT
Nautical Twilight 6:05 AM EDT 9:13 PM EDT
Astronomical Twilight 5:30 AM EDT 9:47 PM EDT
Moon 5:51 PM EDT (4/12) 5:30 AM EDT (4/12)
Length of Visible Light 14h 02m
Length of Day
13h 07m
Waxing Gibbous, 93% of the Moon is Illuminated
Apr 12
Waxing Gibbous
Apr 15
Full
Apr 22
Last Quarter
Apr 29
New
May 6
First Quarter

Hourly Weather History & Observations

Time (EDT) Temp. Windchill Dew Point Humidity Pressure Visibility Wind Dir Wind Speed Gust Speed Precip Events Conditions
12:53 AM 45.0 °F - 39.0 °F 80% 30.12 in 10.0 mi Calm Calm - N/A   Clear
1:53 AM 45.0 °F - 39.0 °F 80% 30.12 in 10.0 mi Calm Calm - N/A   Clear
2:53 AM 44.1 °F - 39.0 °F 82% 30.12 in 10.0 mi Calm Calm - N/A   Clear
3:53 AM 44.1 °F - 39.0 °F 82% 30.13 in 10.0 mi Calm Calm - N/A   Clear
4:53 AM 41.0 °F - 37.0 °F 86% 30.14 in 10.0 mi Calm Calm - N/A   Clear
5:53 AM 41.0 °F - 37.0 °F 86% 30.15 in 10.0 mi Calm Calm - N/A   Clear
6:53 AM 42.1 °F - 39.0 °F 89% 30.16 in 10.0 mi Calm Calm - N/A   Partly Cloudy
7:53 AM 45.0 °F 43.5 °F 41.0 °F 86% 30.17 in 10.0 mi East 3.5 mph - N/A   Scattered Clouds
8:53 AM 52.0 °F - 45.0 °F 77% 30.17 in 10.0 mi ESE 3.5 mph - N/A   Mostly Cloudy
9:53 AM 62.1 °F - 48.9 °F 62% 30.15 in 10.0 mi ESE 4.6 mph - N/A   Mostly Cloudy
10:53 AM 66.9 °F - 48.0 °F 51% 30.15 in 10.0 mi SSE 8.1 mph 18.4 mph N/A   Mostly Cloudy
11:53 AM 71.1 °F - 50.0 °F 47% 30.12 in 10.0 mi South 10.4 mph - N/A   Mostly Cloudy
12:53 PM 75.0 °F - 53.1 °F 46% 30.08 in 10.0 mi South 8.1 mph 19.6 mph N/A   Clear
1:53 PM 77.0 °F - 52.0 °F 42% 30.04 in 10.0 mi SSW 9.2 mph 23.0 mph N/A   Partly Cloudy
2:53 PM 81.0 °F - 52.0 °F 36% 30.01 in 10.0 mi SSW 13.8 mph 23.0 mph N/A   Scattered Clouds
3:53 PM 79.0 °F - 51.1 °F 38% 29.98 in 10.0 mi South 13.8 mph 21.9 mph N/A   Mostly Cloudy
4:53 PM 81.0 °F - 53.1 °F 38% 29.95 in 10.0 mi SW 12.7 mph 21.9 mph N/A   Mostly Cloudy
5:53 PM 80.1 °F - 50.0 °F 35% 29.94 in 10.0 mi South 9.2 mph 20.7 mph N/A   Mostly Cloudy
6:53 PM 78.1 °F - 50.0 °F 37% 29.92 in 10.0 mi SSW 12.7 mph 17.3 mph N/A   Partly Cloudy
7:53 PM 77.0 °F - 51.1 °F 40% 29.91 in 10.0 mi South 6.9 mph - N/A   Clear
8:53 PM 75.0 °F - 51.1 °F 43% 29.91 in 10.0 mi South 6.9 mph - N/A   Clear
9:53 PM 71.1 °F - 52.0 °F 51% 29.91 in 10.0 mi South 3.5 mph - N/A   Clear
10:53 PM 72.0 °F - 51.1 °F 48% 29.90 in 10.0 mi SSW 4.6 mph - N/A   Clear
11:53 PM 71.1 °F - 52.0 °F 51% 29.88 in 10.0 mi SSW 8.1 mph - N/A   Clear